Regional Weather Roundup
Issued by NWS

Current Version | Previous Version | Text Only | Print | Product List | Glossary On
Versions: 1 2 3 4 5 6 7 8 9 10 11 12 13 14 15 16 17 18 19 20 21 22 23 24 25 26 27 28 29 30 31 32 33 34 35 36 37 38 39 40 41 42 43 44 45 46 47 48 49 50
000
ASUS44 KFWD 111915
RWRTX
NORTH TEXAS HOURLY WEATHER ROUNDUP
NATIONAL WEATHER SERVICE FORT WORTH TX
100 PM CST MON DEC 11 2017

NOTE: "FAIR" INDICATES FEW OR NO CLOUDS BELOW 12,000 FEET WITH NO
SIGNIFICANT WEATHER AND/OR OBSTRUCTIONS TO VISIBILITY.

TXZ118-119-112000-
DALLAS/FORT WORTH METROPLEX

CITY           SKY/WX    TMP DP  RH WIND       PRES   REMARKS
DFW AIRPORT    PTSUNNY   77  15   9 W16       30.13F
DALLAS LOVE    PTSUNNY   74  21  13 W9        30.15F
FTW MEACHAM    SUNNY     76  18  11 W14       30.16F
DAL-EXECUTIVE  SUNNY     73  19  13 W15       30.15F
FTW-ALLIANCE   MOSUNNY   75  19  12 W13G20    30.15F
FTW-NAS-JRB    MOSUNNY   75  16  10 W10       30.17F
FTW-SPINKS     SUNNY     73  19  13 W12G18    30.19F
ARLINGTON      SUNNY     74  17  11 W9        30.16F
GRAND PRAIRIE  SUNNY     73  19  13 W12       30.18F
ADDISON        PTSUNNY   73  19  13 SW10      30.15F
MESQUITE       SUNNY     72  18  13 SW13      30.16F
LANCASTER      SUNNY     74  18  12 SW12G17   30.17F
$$

TXZ091>094-102>105-117-120-121-131>134-112000-
NORTH CENTRAL TEXAS

CITY           SKY/WX    TMP DP  RH WIND       PRES   REMARKS
SHRMAN/DENISON SUNNY     73  18  12 W15       30.12F
GAINESVILLE    SUNNY     73  15  11 W14       30.15F
BOWIE          SUNNY     73  18  12 W13       30.15F
BRIDGEPORT     SUNNY     73  23  15 W9G17     30.18F
DECATUR        SUNNY     72  19  13 W12G21    30.14F
DENTON         SUNNY     74  22  14 W17       30.13F
MCKINNEY       SUNNY     71  21  15 W13       30.14F
BONHAM         SUNNY     70  22  16 W14G21    30.12F
GREENVILLE     SUNNY    N/A N/A N/A W12G17    30.14F
ROCKWALL       SUNNY     70  25  18 W10       30.15F
TERRELL        SUNNY     75  19  12 SW12      30.15F
WAXAHACHIE     SUNNY     75  27  16 W13G22    30.18F
CLEBURNE       SUNNY     73  25  16 W6        30.19F
GRANBURY       SUNNY     77  18  10 W14       30.19F
$$

TXZ083>090-098>101-113>116-127>130-139>142-154-155-112000-
WESTERN NORTH TEXAS

CITY           SKY/WX    TMP DP  RH WIND       PRES   REMARKS
WICHITA FALLS  MOSUNNY   69  19  15 W12       30.15F
WF-KICKAPOO    SUNNY     68  19  15 W7        30.19F
VERNON         SUNNY     69  -3   5 NW7       30.18F
ABILENE        SUNNY     72  13  10 W10       30.21F
ABILENE-DYESS  SUNNY     71  21  15 W9        30.21F
GRAHAM           N/A     72  24  16 SW8       30.17F
BRECKENRIDGE   SUNNY     75  18  11 W9        30.19F
CISCO          SUNNY     75   7   7 W13G20    30.22F
EASTLAND       SUNNY     75  11   8 W13       30.20F
RANGER         SUNNY     74  20  13 W8G16     30.20F
MINERAL WELLS  SUNNY     73  14  10 W13       30.17F
STEPHENVILLE   SUNNY     75  15  10 W12       30.23F
COMANCHE       SUNNY     73  23  15 W12       30.22F
COLEMAN        SUNNY     73  15  11 SW10G18   30.22F
$$

TXZ143>147-156>162-174-175-112000-
CENTRAL TEXAS

CITY           SKY/WX    TMP DP  RH WIND       PRES   REMARKS
WACO           SUNNY     73  30  20 S6        30.20F
WACO-TSTC      SUNNY     75  25  15 SW6       30.20F
WACO-MCGREGOR  SUNNY     73  31  21 W10       30.21F
HILLSBORO      SUNNY     75  24  15 SW7       30.18F
CORSICANA      SUNNY     74  25  16 SW9       30.19F
MEXIA          SUNNY     74  24  15 SW7       30.19F
HEARNE         CLOUDY    62  37  38 S3        30.24F
CAMERON        CLOUDY    66  35  31 SW5       30.23F
TEMPLE         CLOUDY    71  31  22 W10       30.23F
KILLEEN        SUNNY     70  27  20 SW5       30.21F
KILLEEN-SKYLRK CLOUDY    71  29  21 W6        30.22F
FORT HOOD      CLOUDY    71  25  18 W9        30.19F
GATESVILLE     SUNNY     73  23  15 W10       30.23F
HAMILTON       SUNNY     75  21  13 W12       30.23F
LAMPASAS       SUNNY     69  26  19 W8        30.22F
$$

TXZ095>097-106>112-122>126-135>138-148>153-164>167-112000-
EAST TEXAS

CITY           SKY/WX    TMP DP  RH WIND       PRES   REMARKS
PARIS          SUNNY     73  26  17 SW14      30.11F
SULPHUR SPRNGS SUNNY     74  19  12 W14       30.14F
MOUNT PLEASANT SUNNY     70  29  21 SW8       30.14F
GILMER           N/A     72  25  17 W8        30.14F
MINEOLA        SUNNY     72  23  16 W10       30.14F
TYLER          SUNNY     73  20  13 W8        30.15F
LONGVIEW       SUNNY     75  26  16 NW13      30.14F
MARSHALL       SUNNY     70  24  17 SW5       30.15F
ATHENS         SUNNY     68  27  21 W7        30.16F
PALESTINE      SUNNY     72  27  18 SW8       30.20F
JACKSONVILLE   SUNNY     73  26  17 W10       30.19F
HENDERSON      SUNNY     73  25  16 W5        30.17F
CENTER         CLEAR     72  26  18 SW7       30.16F
NACOGDOCHES    SUNNY     70  37  29 S6        30.18F
LUFKIN         SUNNY     70  39  32 VRB6      30.19F
$$

SUPPLEMENTAL OBSERVATIONS (NWS FORT WORTH AREA)

CITY           SKY/WX    TMP DP  RH WIND       PRES   REMARKS
CADDO GRASSLND   N/A     73  21  14 SW8         N/A
LBJ GRASSLAND    N/A     73  21  14 W10         N/A
COMANCHE         N/A     75  16  10 W12         N/A
MCGREGOR         N/A     75  32  20 SW5G13      N/A
LAKE LIMESTONE   N/A     73  30  20 SW9         N/A
$$

SUPPLEMENTAL OBSERVATIONS (NWS NORMAN AREA)

CITY           SKY/WX    TMP DP  RH WIND       PRES   REMARKS
GOODLETT         N/A     68  14  12 NW6       30.18F
ODELL            N/A     68  15  13 NW7       30.18F
CROWELL          N/A     72  16  11 NW7       30.18F
KNOX CITY        N/A     73  14  10 SW10      30.19F
SEYMOUR          N/A     73  15  11 W12       30.17F
MILLERS CREEK    N/A     70  25  18 SW10        N/A
$$

SUPPLEMENTAL OBSERVATIONS (NWS SAN ANGELO AREA)

CITY           SKY/WX    TMP DP  RH WIND       PRES   REMARKS
WEINERT          N/A     71  17  12 W9        30.19F
HASKELL          N/A     69  17  13 SW13      30.20F
THROCKMORTON     N/A     67  25  20 SW10      30.20F
STAMFORD         N/A     72  22  15 W13       30.21F
CLYDE            N/A     73  17  12 SW12      30.22F
IVIE RESERVOIR   N/A     70  23  17 W12         N/A
COLORADO BEND    N/A     72  25  17 W6          N/A
$$

SUPPLEMENTAL OBSERVATIONS (NWS SHREVEPORT AREA)

CITY           SKY/WX    TMP DP  RH WIND       PRES   REMARKS
TEXARKANA        N/A     73  23  15 SW7         N/A
CADDO LAKE       N/A     77  28  16 W5          N/A
LUFKIN           N/A     73  37  27 MISG        N/A
N SABINE NF      N/A     72  32  23 MISG        N/A
$$

SUPPLEMENTAL OBSERVATIONS ARE A COLLECTION OF AUTOMATED INSTRUMENTS
THAT ARE MAINTAINED BY A VARIETY OF FEDERAL AND STATE AGENCIES.
CERTAIN ELEMENTS...SUCH AS HUMIDITY VALUES AND SUSTAINED WIND
SPEEDS...MAY BE APPROXIMATED.




USA.gov is the U.S. government's official web portal to all federal, state and local government web resources and services.